Вернуться в каталог

DELTA 2 DEB

АктивенHEO
NORAD 26851·DEBRIS·🇺🇸 United States

Запущен Sep 9, 1992 с Cape Canaveral Space Force Station

Loading…

Ближайшие Пролёты (ближайшие 24 часа)

TLE

СвежийSource: Space-Track

Эпоха: Sep 14, 2026, 01:32 UTC

1 26851U 92058E   26257.06430056  .00019448  00000-0  50568-3 0  9995
2 26851  34.8220 177.7099 3552217  79.2203 318.1327  8.34990252669885

Отслеживайте DELTA 2 DEB в реальном времени с AllMySat

Download on the App Store